Regional Weather Roundup
Issued by NWS Kansas City/Pleasant Hill, MO

Home | Current Version | Previous Version | Graphics & Text | Print | Product List | Glossary Off
Versions: 1 2 3 4 5 6 7 8 9 10 11 12 13 14 15 16 17 18 19 20 21 22 23 24 25 26 27 28 29 30 31 32 33 34 35 36 37 38 39 40 41 42 43 44 45 46 47 48 49 50

000
ASUS43 KEAX 220604
RWREAX

WEATHER ROUNDUP FOR EASTERN KANSAS AND NORTHWEST MISSOURI
NATIONAL WEATHER SERVICE KANSAS CITY/PLEASANT HILL MO
100 AM CDT WED OCT 22 2014

KSZ040-057-103>105-MOZ028-029-037-043-220700-
...KANSAS CITY METROPOLITAN AREA...

CITY           SKY/WX    TMP DP  RH WIND       PRES   REMARKS
K.C. INTL      CLEAR     56  45  66 SE15      30.12S
6HR MIN TEMP:  56; 6HR MAX TEMP:  65;

K.C. DOWNTOWN  CLEAR     59  45  59 E12       30.11F
6HR MIN TEMP:  56; 6HR MAX TEMP:  67;

LEES SUMMIT    CLEAR     56  44  64 SE9       30.13S
6HR MIN TEMP:  53; 6HR MAX TEMP:  67;

OLATHE - IXD   CLEAR     56  45  66 E8        30.12S
6HR MIN TEMP:  56; 6HR MAX TEMP:  65;

OLATHE - OJC   CLEAR     56  45  66 SE8       30.11S
6HR MIN TEMP:  56; 6HR MAX TEMP:  65;

LAWRENCE       CLEAR     48  44  86 E6        30.10F

$$

MOZ001>008-011>017-020>025-030>033-038>040-044>046-053-054-220700-
...NORTHERN AND CENTRAL MISSOURI...

CITY           SKY/WX    TMP DP  RH WIND       PRES   REMARKS
ST. JOSEPH     MOCLDY    57  45  64 SE12      30.12S
6HR MIN TEMP:  49; 6HR MAX TEMP:  63;

MOSBY          CLEAR     54  45  71 E3        30.14S
WHITEMAN AFB   CLEAR     50  44  80 SE6       30.14S
6HR MIN TEMP:  50; 6HR MAX TEMP:  62;

CLINTON        CLEAR     55  48  76 E7        30.14S
SEDALIA        CLEAR     52  44  74 E6        30.17S
6HR MIN TEMP:  52; 6HR MAX TEMP:  66;

WARSAW         NOT AVBL
MARSHALL       CLEAR     54  46  76 E6        30.17S
CHILLICOTHE      N/A     51  43  74 VRB5      30.18S
6HR MIN TEMP:  51; 6HR MAX TEMP:  64;

MOBERLY        CLEAR     46  39  76 E5        30.20R
KIRKSVILLE     CLEAR     46  41  82 E7        30.20S
6HR MIN TEMP:  46; 6HR MAX TEMP:  56;


$$

MOZ041-047>049-056>058-063>065-088>090-097-220700-
...EASTERN AND SOUTHERN MISSOURI...

CITY           SKY/WX    TMP DP  RH WIND       PRES   REMARKS
ST. LOUIS INTL CLEAR     50  40  68 E8        30.22R
6HR MIN TEMP:  50; 6HR MAX TEMP:  62;

SPIRIT OF STL  CLEAR     45  41  86 E3        30.20S
COLUMBIA       CLEAR     48  41  76 E9        30.18S
JEFFERSON CITY CLEAR     50  42  74 E5        30.18S
MEXICO         CLEAR     46  45  93 CALM      30.19S
ROLLA          CLEAR     49  42  77 E8        30.16S
LEBANON        CLEAR     50  45  81 E5        30.17R HAZE
OSAGE BEACH    CLEAR     48  43  81 E3        30.16S
SPRINGFIELD    CLEAR     52  44  74 SE6       30.13S
BRANSON        CLEAR     48  46  93 CALM      30.14S
NEVADA         CLEAR     52  45  76 SE5       30.13R
JOPLIN         CLEAR     56  47  71 E7        30.10F
WEST PLAINS    CLEAR     50  43  77 E3        30.17S

$$

IAZ060-094-KSZ022-034>040-054-083-096-NEZ052-066-093-220700-
...KANSAS...SOUTHEAST NEBRASKA AND IOWA...

CITY           SKY/WX    TMP DP  RH WIND       PRES   REMARKS
TOPEKA         PTCLDY    57  47  69 E7        30.09S
6HR MIN TEMP:  56; 6HR MAX TEMP:  65;

MANHATTAN      CLEAR     61  54  77 E3        30.04F
EMPORIA        CLEAR     57  51  80 SE8       30.07F
CHANUTE        CLEAR     58  49  72 SE8       30.09S
WICHITA        CLEAR     65  59  81 SE12      30.03F
OMAHA          PTCLDY    57  44  62 SE17      30.07F
LINCOLN        CLEAR     61  42  49 SE15      30.04F
FALLS CITY     CLOUDY    56  44  64 SE8       30.08S
LAMONI         CLEAR     49  41  74 SE5       30.16S
DES MOINES     CLEAR     50  39  66 SE9       30.18R

$$




USA.gov is the U.S. government's official web portal to all federal, state and local government web resources and services.